GW4730 Weather Reports


time (UTC)temp
F
wind
direction
speed
knots
gust
knots
rain 1hr
in
rain 24hr
in
rain mn
in
humidity
%
barometer
mb
20260509201907 70 325 0.9 1.7 0.00 0.00 0.00 53 1010.0
20260509201402 70 313 1.7 2.6 0.00 0.00 0.00 50 1009.8
20260509200900 70 259 1.7 3.5 0.00 0.00 0.00 50 1009.8
20260509200359 71 268 0.0 3.5 0.00 0.00 0.00 53 1009.7
20260509195856 71 170 0.9 0.9 0.00 0.00 0.00 47 1010.0
20260509195356 72 191 2.6 5.2 0.00 0.00 0.00 48 1009.9
20260509194851 73 41 1.7 3.5 0.00 0.00 0.00 49 1010.0
20260509194348 70 241 2.6 2.6 0.00 0.00 0.00 51 1010.1
20260509193844 71 126 3.5 5.2 0.00 0.00 0.00 49 1010.1
20260509193343 71 338 0.9 1.7 0.00 0.00 0.00 50 1009.9
20260509192840 72 15 0.0 2.6 0.00 0.00 0.00 48 1010.2
20260509192336 73 114 1.7 1.7 0.00 0.00 0.00 49 1010.1
20260509191831 71 92 0.9 2.6 0.00 0.00 0.00 53 1010.0
20260509191327 71 219 5.2 7.0 0.00 0.00 0.00 48 1010.2
20260509190823 71 129 1.7 3.5 0.00 0.00 0.00 50 1010.2
20260509190321 71 1 0.0 2.6 0.00 0.00 0.00 51 1010.2
20260509185818 72 62 3.5 5.2 0.00 0.00 0.00 52 1010.2
20260509185314 72 187 1.7 1.7 0.00 0.00 0.00 54 1010.2
20260509184812 70 150 3.5 3.5 0.00 0.00 0.00 52 1010.4
20260509184309 70 230 0.9 1.7 0.00 0.00 0.00 55 1010.3
20260509183805 70 103 0.9 1.7 0.00 0.00 0.00 55 1010.6
20260509183301 70 30 1.7 2.6 0.00 0.00 0.00 56 1010.7
20260509182756 70 119 1.7 2.6 0.00 0.00 0.00 54 1011.0
20260509182254 0 0.0 0.0 0.00 0.00 0.00 1010.8
20260509181751 68 77 1.7 1.7 0.00 0.00 0.00 58 1010.9
20260509181249 68 77 1.7 2.6 0.00 0.00 0.00 58 1011.0
20260509180746 66 113 0.9 1.7 0.00 0.00 0.00 61 1011.1
20260509180242 67 357 3.5 5.2 0.00 0.00 0.00 59 1011.1
20260509175738 0 0.0 0.0 0.00 0.00 0.00 1011.2
20260509175235 65 7 1.7 2.6 0.00 0.00 0.00 64 1011.4
20260509174731 65 7 1.7 2.6 0.00 0.00 0.00 64 1011.7
20260509174226 64 344 4.3 5.2 0.00 0.00 0.00 66 1011.7
20260509173722 64 344 4.3 5.2 0.00 0.00 0.00 66 1011.8
20260509173218 63 353 2.6 2.6 0.00 0.00 0.00 68 1011.9
20260509172714 63 331 3.5 3.5 0.00 0.00 0.00 68 1011.9
20260509172211 63 21 0.9 3.5 0.00 0.00 0.00 66 1012.0
20260509171706 64 338 2.6 3.5 0.00 0.00 0.00 67 1012.2
20260509171203 63 327 2.6 2.6 0.00 0.00 0.00 66 1012.3
20260509170700 62 338 3.5 3.5 0.00 0.00 0.00 70 1012.4
20260509170156 62 338 3.5 3.5 0.00 0.00 0.00 70 1012.5
20260509165654 62 1 3.5 5.2 0.00 0.00 0.00 69 1012.7
20260509165150 62 337 1.7 2.6 0.00 0.00 0.00 72 1012.6
20260509164646 62 353 1.7 1.7 0.00 0.00 0.00 68 1012.8
20260509164142 62 2 2.6 2.6 0.00 0.00 0.00 69 1012.6
20260509163640 62 337 3.5 3.5 0.00 0.00 0.00 67 1012.6
20260509163135 62 337 3.5 3.5 0.00 0.00 0.00 67 1012.4
20260509162633 0 0.0 0.0 0.00 0.00 0.00 1012.4
20260509162128 63 35 1.7 2.6 0.00 0.00 0.00 67 1012.0
20260509161625 63 35 1.7 2.6 0.00 0.00 0.00 67 1012.1
20260509161120 0 0.0 0.0 0.00 0.00 0.00 1011.9
20260509160616 0 0.0 0.0 0.00 0.00 0.00 1012.1
20260509160111 0 0.0 0.0 0.00 0.00 0.00 1012.3
20260509155608 0 0.0 0.0 0.00 0.00 0.00 1012.3
20260509155104 0 0.0 0.0 0.00 0.00 0.00 1012.5
20260509154600 0 0.0 0.0 0.00 0.00 0.00 1012.4
20260509154058 63 331 3.5 5.2 0.00 0.00 0.00 63 1012.4
20260509153555 63 331 3.5 5.2 0.00 0.00 0.00 63 1012.4
20260509153052 0 0.0 0.0 0.00 0.00 0.00 1012.6
20260509152548 0 0.0 0.0 0.00 0.00 0.00 1012.6
20260509152045 0 0.0 0.0 0.00 0.00 0.00 1012.6
20260509151541 0 0.0 0.0 0.00 0.00 0.00 1012.6
20260509151039 0 0.0 0.0 0.00 0.00 0.00 1012.4
20260509150536 0 0.0 0.0 0.00 0.00 0.00 1012.6
20260509150035 0 0.0 0.0 0.00 0.00 0.00 1012.6
20260509145530 0 0.0 0.0 0.00 0.00 0.00 1012.6
20260509145025 0 0.0 0.0 0.00 0.00 0.00 1012.6
20260509144522 0 0.0 0.0 0.00 0.00 0.00 1012.6
20260509144019 0 0.0 0.0 0.00 0.00 0.00 1012.8
20260509143516 0 0.0 0.0 0.00 0.00 0.00 1012.9
20260509143014 0 0.0 0.0 0.00 0.00 0.00 1012.7
20260509142509 0 0.0 0.0 0.00 0.00 0.00 1012.8
20260509142005 0 0.0 0.0 0.00 0.00 0.00 1013.0
20260509141502 0 0.0 0.0 0.00 0.00 0.00 1012.9
20260509140959 0 0.0 0.0 0.00 0.00 0.00 1013.0
20260509140455 0 0.0 0.0 0.00 0.00 0.00 1012.9
20260509135953 0 0.0 0.0 0.00 0.00 0.00 1012.8
20260509135450 0 0.0 0.0 0.00 0.00 0.00 1012.6
20260509134948 0 0.0 0.0 0.00 0.00 0.00 1012.5
20260509134445 0 0.0 0.0 0.00 0.00 0.00 1012.3
20260509133942 0 0.0 0.0 0.00 0.00 0.00 1012.2
20260509133439 0 0.0 0.0 0.00 0.00 0.00 1012.4
20260509132937 0 0.0 0.0 0.00 0.00 0.00 1012.5
20260509132435 0 0.0 0.0 0.00 0.00 0.00 1012.6
20260509131932 0 0.0 0.0 0.00 0.00 0.00 1012.5
20260509131429 0 0.0 0.0 0.00 0.00 0.00 1012.6
20260509130925 0 0.0 0.0 0.00 0.00 0.00 1012.7
20260509130420 0 0.0 0.0 0.00 0.00 0.00 1012.5
20260509125918 0 0.0 0.0 0.00 0.00 0.00 1012.7
20260509125415 0 0.0 0.0 0.00 0.00 0.00 1012.9
20260509124910 0 0.0 0.0 0.00 0.00 0.00 1012.6
20260509124408 0 0.0 0.0 0.00 0.00 0.00 1012.7
20260509123905 0 0.0 0.0 0.00 0.00 0.00 1012.6
20260509123402 0 0.0 0.0 0.00 0.00 0.00 1012.4
20260509122858 0 0.0 0.0 0.00 0.00 0.00 1012.4
20260509122355 0 0.0 0.0 0.00 0.00 0.00 1012.5
20260509121852 0 0.0 0.0 0.00 0.00 0.00 1012.6
20260509121349 0 0.0 0.0 0.00 0.00 0.00 1012.6
20260509120847 0 0.0 0.0 0.00 0.00 0.00 1012.9
20260509120344 0 0.0 0.0 0.00 0.00 0.00 1012.7
20260509115843 0 0.0 0.0 0.00 0.00 0.00 1012.7
20260509115339 0 0.0 0.0 0.00 0.00 0.00 1012.7
20260509114837 0 0.0 0.0 0.00 0.00 0.00 1012.7
20260509114336 0 0.0 0.0 0.00 0.00 0.00 1012.6
20260509113835 0 0.0 0.0 0.00 0.00 0.00 1012.7
20260509113331 0 0.0 0.0 0.00 0.00 0.00 1012.6
20260509112828 0 0.0 0.0 0.00 0.00 0.00 1012.5
20260509112325 0 0.0 0.0 0.00 0.00 0.00 1012.3
20260509111822 0 0.0 0.0 0.00 0.00 0.00 1012.5
20260509111319 0 0.0 0.0 0.00 0.00 0.00 1012.5
20260509110817 0 0.0 0.0 0.00 0.00 0.00 1012.5
20260509110313 0 0.0 0.0 0.00 0.00 0.00 1012.4
20260509105811 0 0.0 0.0 0.00 0.00 0.00 1012.3
20260509105309 0 0.0 0.0 0.00 0.00 0.00 1012.4
20260509104805 0 0.0 0.0 0.00 0.00 0.00 1012.3
20260509104302 0 0.0 0.0 0.00 0.00 0.00 1012.3
20260509103800 0 0.0 0.0 0.00 0.00 0.00 1012.3
20260509103257 0 0.0 0.0 0.00 0.00 0.00 1012.1
20260509102755 0 0.0 0.0 0.00 0.00 0.00 1011.9
20260509102252 0 0.0 0.0 0.00 0.00 0.00 1011.9
20260509101748 0 0.0 0.0 0.00 0.00 0.00 1011.7
20260509101244 0 0.0 0.0 0.00 0.00 0.00 1011.9
20260509100742 0 0.0 0.0 0.00 0.00 0.00 1011.9
20260509100240 0 0.0 0.0 0.00 0.00 0.00 1012.0
20260509095736 0 0.0 0.0 0.00 0.00 0.00 1011.8
20260509095233 0 0.0 0.0 0.00 0.00 0.00 1011.7
20260509094730 0 0.0 0.0 0.00 0.00 0.00 1011.8
20260509094227 0 0.0 0.0 0.00 0.00 0.00 1011.9
20260509093725 0 0.0 0.0 0.00 0.00 0.00 1011.8
20260509093222 0 0.0 0.0 0.00 0.00 0.00 1011.7
20260509092720 0 0.0 0.0 0.00 0.00 0.00 1011.7
20260509092218 0 0.0 0.0 0.00 0.00 0.00 1011.7
20260509091716 0 0.0 0.0 0.00 0.00 0.00 1011.5
20260509091211 0 0.0 0.0 0.00 0.00 0.00 1011.6
20260509090710 0 0.0 0.0 0.00 0.00 0.00 1011.6
20260509090206 0 0.0 0.0 0.00 0.00 0.00 1011.6
20260509085704 0 0.0 0.0 0.00 0.00 0.00 1011.7
20260509085200 0 0.0 0.0 0.00 0.00 0.00 1011.7
20260509084657 0 0.0 0.0 0.00 0.00 0.00 1011.6
20260509084154 0 0.0 0.0 0.00 0.00 0.00 1011.9
20260509083652 0 0.0 0.0 0.00 0.00 0.00 1011.7
20260509083148 0 0.0 0.0 0.00 0.00 0.00 1011.7
20260509082646 0 0.0 0.0 0.00 0.00 0.00 1011.8
20260509082142 0 0.0 0.0 0.00 0.00 0.00 1012.0
20260509081639 0 0.0 0.0 0.00 0.00 0.00 1011.9
20260509081136 0 0.0 0.0 0.00 0.00 0.00 1011.9
20260509080635 0 0.0 0.0 0.00 0.00 0.00 1011.9
20260509080132 0 0.0 0.0 0.00 0.00 0.00 1012.0
20260509075630 0 0.0 0.0 0.00 0.00 0.00 1012.2
20260509075128 0 0.0 0.0 0.00 0.00 0.00 1011.7
20260509074624 0 0.0 0.0 0.00 0.00 0.00 1012.0
20260509074120 0 0.0 0.0 0.00 0.00 0.00 1011.9
20260509073618 0 0.0 0.0 0.00 0.00 0.00 1012.0
20260509073114 0 0.0 0.0 0.00 0.00 0.00 1011.8
20260509072611 0 0.0 0.0 0.00 0.00 0.00 1012.2
20260509072107 0 0.0 0.0 0.00 0.00 0.00 1011.9
20260509071604 0 0.0 0.0 0.00 0.00 0.00 1012.0
20260509071101 0 0.0 0.0 0.00 0.00 0.00 1012.1
20260509070559 0 0.0 0.0 0.00 0.00 0.00 1011.9
20260509070054 0 0.0 0.0 0.00 0.00 0.00 1012.2
20260509065550 0 0.0 0.0 0.00 0.00 0.00 1012.1
20260509065046 0 0.0 0.0 0.00 0.00 0.00 1012.1
20260509064544 0 0.0 0.0 0.00 0.00 0.00 1012.3
20260509064042 0 0.0 0.0 0.00 0.00 0.00 1012.3
20260509063537 0 0.0 0.0 0.00 0.00 0.00 1012.4
20260509063035 0 0.0 0.0 0.00 0.00 0.00 1012.5
20260509062532 0 0.0 0.0 0.00 0.00 0.00 1012.4
20260509062030 0 0.0 0.0 0.00 0.00 0.00 1012.4
20260509061526 0 0.0 0.0 0.00 0.00 0.00 1012.6
20260509061024 0 0.0 0.0 0.00 0.00 0.00 1012.5
20260509060521 0 0.0 0.0 0.00 0.00 0.00 1012.5
20260509060017 0 0.0 0.0 0.00 0.00 0.00 1012.7
20260509055512 0 0.0 0.0 0.00 0.00 0.00 1012.5
20260509055009 0 0.0 0.0 0.00 0.00 0.00 1012.6
20260509054505 0 0.0 0.0 0.00 0.00 0.00 1012.5
20260509054003 0 0.0 0.0 0.00 0.00 0.00 1012.5
20260509053501 0 0.0 0.0 0.00 0.00 0.00 1012.6
20260509052958 0 0.0 0.0 0.00 0.00 0.00 1012.6
20260509052455 0 0.0 0.0 0.00 0.00 0.00 1012.7
20260509051953 0 0.0 0.0 0.00 0.00 0.00 1012.7
20260509051451 0 0.0 0.0 0.00 0.00 0.00 1012.8
20260509050948 0 0.0 0.0 0.00 0.00 0.00 1012.6
20260509050444 0 0.0 0.0 0.00 0.00 0.00 1012.7
20260509045941 0 0.0 0.0 0.00 0.00 0.00 1012.5
20260509045438 0 0.0 0.0 0.00 0.00 0.00 1012.5
20260509044935 0 0.0 0.0 0.00 0.00 0.00 1012.4
20260509044433 0 0.0 0.0 0.00 0.00 0.00 1012.7
20260509043930 0 0.0 0.0 0.00 0.00 0.00 1012.5
20260509043426 0 0.0 0.0 0.00 0.00 0.00 1012.7
20260509042921 0 0.0 0.0 0.00 0.00 0.00 1012.8
20260509042419 0 0.0 0.0 0.00 0.00 0.00 1012.9
20260509041915 0 0.0 0.0 0.00 0.00 0.00 1012.5
20260509041412 0 0.0 0.0 0.00 0.00 0.00 1013.0
20260509040910 0 0.0 0.0 0.00 0.00 0.00 1013.0
20260509040408 0 0.0 0.0 0.00 0.00 0.00 1012.8
20260509035904 0 0.0 0.0 0.00 0.00 0.00 1013.0
20260509035401 0 0.0 0.0 0.00 0.00 0.00 1012.8
20260509034857 0 0.0 0.0 0.00 0.00 0.00 1012.8
20260509034355 0 0.0 0.0 0.00 0.00 0.00 1013.0
20260509033852 0 0.0 0.0 0.00 0.00 0.00 1013.1
20260509033349 0 0.0 0.0 0.00 0.00 0.00 1012.9
20260509032846 0 0.0 0.0 0.00 0.00 0.00 1012.9
20260509032343 0 0.0 0.0 0.00 0.00 0.00 1012.8
20260509031842 0 0.0 0.0 0.00 0.00 0.00 1012.9
20260509031338 0 0.0 0.0 0.00 0.00 0.00 1012.9
20260509030836 50 90 0.0 0.0 0.00 0.00 0.00 81 1012.9
20260509030334 50 90 0.0 0.0 0.00 0.00 0.00 81 1012.9
20260509025830 0 0.0 0.0 0.00 0.00 0.00 1012.8
20260509025325 0 0.0 0.0 0.00 0.00 0.00 1013.0
20260509024821 51 90 0.0 0.0 0.00 0.00 0.00 74 1012.9
20260509024318 51 90 0.0 0.0 0.00 0.00 0.00 74 1013.1
20260509023815 51 94 0.0 0.0 0.00 0.00 0.00 76 1013.1
20260509023312 51 94 0.0 0.0 0.00 0.00 0.00 76 1013.2
20260509022808 52 180 0.0 0.0 0.00 0.00 0.00 72 1013.2
20260509022307 0 0.0 0.0 0.00 0.00 0.00 1013.2
20260509021803 0 0.0 0.0 0.00 0.00 0.00 1013.3
20260509021300 51 174 0.0 0.0 0.00 0.00 0.00 74 1013.0
20260509020757 51 174 0.0 0.0 0.00 0.00 0.00 74 1013.2
20260509020255 51 175 0.0 0.0 0.00 0.00 0.00 72 1013.2
20260509015753 51 175 0.0 0.0 0.00 0.00 0.00 73 1013.1
20260509015251 52 175 0.0 0.9 0.00 0.00 0.00 74 1013.0
20260509014746 53 71 0.0 0.0 0.00 0.00 0.00 71 1012.8
20260509014244 53 71 0.0 0.0 0.00 0.00 0.00 72 1013.0
20260509013740 53 71 0.0 0.0 0.00 0.00 0.00 71 1013.2
20260509013236 53 149 0.0 0.9 0.00 0.00 0.00 71 1013.1
20260509012733 54 10 0.0 0.0 0.00 0.00 0.00 69 1013.1
20260509012230 54 24 0.0 0.0 0.00 0.00 0.00 68 1013.0
20260509011727 55 26 0.0 0.0 0.00 0.00 0.00 66 1013.1
20260509011225 56 26 0.0 0.0 0.00 0.00 0.00 62 1013.1
20260509010722 57 44 0.0 0.0 0.00 0.00 0.00 61 1013.0
20260509010218 58 66 0.0 0.0 0.00 0.00 0.00 60 1012.8
20260509005716 59 59 0.0 0.0 0.00 0.00 0.00 58 1012.8
20260509005213 59 44 0.0 0.0 0.00 0.00 0.00 56 1013.0
20260509004707 60 27 0.0 0.0 0.00 0.00 0.00 57 1012.9
20260509004206 60 27 0.0 0.0 0.00 0.00 0.00 54 1012.9
20260509003704 61 27 0.0 0.0 0.00 0.00 0.00 56 1013.0
20260509003201 62 43 0.0 0.0 0.00 0.00 0.00 53 1012.8
20260509002658 62 96 0.0 0.9 0.00 0.00 0.00 52 1013.1
20260509002155 63 104 0.9 0.9 0.00 0.00 0.00 51 1012.8
20260509001653 64 96 0.0 0.9 0.00 0.00 0.00 49 1012.7
20260509001148 64 83 0.0 0.0 0.00 0.00 0.00 45 1012.6
20260509000647 65 35 0.0 0.0 0.00 0.00 0.00 42 1012.6
20260509000143 66 41 0.0 0.0 0.00 0.00 0.00 42 1012.7
20260508235641 67 88 0.0 0.9 0.00 0.00 0.00 41 1012.6
20260508235137 67 77 0.0 0.9 0.00 0.00 0.00 42 1012.5
20260508234634 68 71 0.0 0.0 0.00 0.00 0.00 41 1012.5
20260508234131 68 56 0.0 0.9 0.00 0.00 0.00 42 1012.3
20260508233630 67 46 0.0 0.0 0.00 0.00 0.00 40 1012.6
20260508233127 67 7 0.0 0.9 0.00 0.00 0.00 41 1012.5
20260508232624 67 352 0.0 0.0 0.00 0.00 0.00 41 1012.4
20260508232121 67 356 0.0 0.9 0.00 0.00 0.00 38 1012.2
20260508231619 67 342 1.7 2.6 0.00 0.00 0.00 40 1012.2
20260508231115 68 265 2.6 2.6 0.00 0.00 0.00 37 1012.4
20260508230612 69 279 1.7 1.7 0.00 0.00 0.00 40 1012.4
20260508230109 68 303 0.9 2.6 0.00 0.00 0.00 41 1012.2
20260508225607 67 283 1.7 1.7 0.00 0.00 0.00 42 1012.2
20260508225103 67 327 1.7 2.6 0.00 0.00 0.00 39 1012.3
20260508224601 69 290 0.9 3.5 0.00 0.00 0.00 42 1012.4
20260508224057 71 318 2.6 7.0 0.00 0.00 0.00 38 1012.4
20260508223555 71 258 2.6 6.1 0.00 0.00 0.00 35 1012.2
20260508223052 70 298 2.6 6.1 0.00 0.00 0.00 34 1012.4
20260508222550 70 286 3.5 5.2 0.00 0.00 0.00 36 1012.2
20260508222047 68 255 3.5 7.0 0.00 0.00 0.00 35 1012.4
20260508221543 68 337 1.7 1.7 0.00 0.00 0.00 40 1012.2
20260508221038 70 305 4.3 6.1 0.00 0.00 0.00 37 1012.3
20260508220536 71 251 2.6 2.6 0.00 0.00 0.00 34 1012.3
20260508220032 71 322 2.6 3.5 0.00 0.00 0.00 39 1012.5
20260508215529 70 352 1.7 5.2 0.00 0.00 0.00 34 1012.4
20260508215025 70 334 2.6 8.7 0.00 0.00 0.00 37 1012.4
20260508214523 70 246 4.3 7.8 0.00 0.00 0.00 36 1012.3
20260508214019 69 280 3.5 5.2 0.00 0.00 0.00 36 1012.4
20260508213517 68 299 3.5 7.8 0.00 0.00 0.00 36 1012.6
20260508213012 68 272 4.3 7.0 0.00 0.00 0.00 37 1012.6
20260508212509 68 256 6.1 7.8 0.00 0.00 0.00 35 1012.7
20260508212006 68 237 1.7 6.1 0.00 0.00 0.00 39 1012.5
20260508211501 68 307 1.7 2.6 0.00 0.00 0.00 35 1012.5
20260508210958 68 247 2.6 2.6 0.00 0.00 0.00 36 1012.5
20260508210454 69 241 2.6 2.6 0.00 0.00 0.00 36 1012.6
20260508205950 69 267 4.3 7.8 0.00 0.00 0.00 35 1012.5
20260508205448 69 250 7.8 9.6 0.00 0.00 0.00 34 1012.5
20260508204944 68 266 7.8 13.0 0.00 0.00 0.00 34 1012.5
20260508204442 68 330 3.5 5.2 0.00 0.00 0.00 39 1012.6
20260508203937 68 243 3.5 7.8 0.00 0.00 0.00 35 1012.8
20260508203433 68 195 6.1 8.7 0.00 0.00 0.00 31 1012.6
20260508202929 68 230 6.1 7.8 0.00 0.00 0.00 32 1012.9
20260508202427 69 218 7.0 8.7 0.00 0.00 0.00 33 1012.6